Starlink 4489

operational
NORAD ID: 53542 Int'l Des: 2022-101 Owner: SPXS Country: US Constellation: starlink
LEOCIRCULAR

关于 Starlink 4489

正在加载描述...

实时位置

正在加载3D地球...

即将过境

高度历史

Altitude vs Time

uPlot chart will show altitude changes over time

两行轨道根数

1 53542U 22101R 25257.36475672 .00000894 00000-0 74250-4 0 9999
2 53542 53.2166 135.6732 0001590 82.9627 277.1546 15.08839809170371
Epoch: Sep 14, 2025 • Age: 23 hours

当前状态

高度 540.0 km
速度 7.60 km/s
星下点 22.69°N, 176.43°W
发射日期 Aug 19, 2022
运行时间 3 years
类型 internet

技术详情

分类 Payload
质量 300.00 kg
干质量 290.00 kg
总质量 300.00 kg
长度 0.20 m
直径 2.80 m
跨度 9.00 m
形状 Box + pan
制造商 SPXS
平台类型 Starlink
阶段状态 In Orbit
所有者/国家 SPXS/US

大型星座

Loading constellations...